WK1F-2 Weather Reports


time (UTC)temp
C
wind
direction
speed
KPH
gust
KPH
rain 1hr
cm
rain 24hr
cm
rain mn
cm
humidity
%
barometer
mb
20260510073022 20 97 4.8 12.9 0.00 0.00 0.00 99 1011.9
20260510072522 20 97 3.2 4.8 0.00 0.00 0.00 99 1012.6
20260510072022 21 179 0.0 0.0 0.00 0.00 0.00 99 1013.1
20260510071522 20 178 0.0 0.0 0.00 0.00 0.00 99 1013.4
20260510071022 21 179 0.0 0.0 0.00 0.00 0.00 99 1013.3
20260510070522 20 178 0.0 0.0 0.00 0.00 0.00 99 1013.3
20260510070022 20 179 0.0 0.0 0.00 0.00 0.00 99 1013.1
20260510065522 20 178 0.0 0.0 0.00 0.00 0.00 99 1013.0
20260510065022 20 179 0.0 0.0 0.00 0.00 0.00 99 1012.9
20260510064522 20 178 0.0 0.0 0.00 0.00 0.00 99 1013.0
20260510064022 20 179 0.0 0.0 0.00 0.00 0.00 99 1013.0
20260510063522 20 178 0.0 0.0 0.00 0.00 0.00 99 1013.1
20260510063022 20 179 0.0 0.0 0.00 0.00 0.00 99 1013.3
20260510062522 20 178 0.0 0.0 0.00 0.00 0.00 99 1013.4
20260510062022 20 179 0.0 0.0 0.00 0.00 0.00 99 1013.4
20260510061522 20 178 0.0 0.0 0.00 0.00 0.00 99 1013.4
20260510061022 20 179 0.0 0.0 0.00 0.00 0.00 99 1013.3
20260510060522 20 178 0.0 0.0 0.00 0.00 0.00 99 1013.4
20260510060022 20 179 0.0 0.0 0.00 0.00 0.00 99 1013.5
20260510055522 20 178 0.0 0.0 0.00 0.00 0.00 99 1013.7
20260510055022 20 179 0.0 0.0 0.00 0.00 0.00 99 1013.7
20260510054522 20 178 0.0 0.0 0.00 0.00 0.00 99 1013.7
20260510054022 20 179 0.0 0.0 0.00 0.00 0.00 99 1013.8
20260510053522 20 178 0.0 0.0 0.00 0.00 0.00 99 1013.9
20260510053022 20 179 0.0 0.0 0.00 0.00 0.00 99 1013.9
20260510052522 20 178 0.0 0.0 0.00 0.00 0.00 99 1014.0
20260510052022 20 179 0.0 0.0 0.00 0.00 0.00 99 1014.1
20260510051522 20 178 0.0 0.0 0.00 0.00 0.00 99 1014.1
20260510051022 20 179 0.0 0.0 0.00 0.00 0.00 99 1014.1
20260510050521 20 178 0.0 0.0 0.00 0.00 0.00 99 1014.2
20260510050021 20 179 0.0 0.0 0.00 0.00 0.00 99 1014.2
20260510045521 20 178 0.0 0.0 0.00 0.00 0.00 99 1014.3
20260510045021 20 179 0.0 0.0 0.00 0.00 0.00 99 1014.3
20260510044521 20 178 0.0 0.0 0.00 0.00 0.00 99 1014.4
20260510044021 21 179 0.0 0.0 0.00 0.00 0.00 99 1014.4
20260510043521 20 178 0.0 0.0 0.00 0.00 0.00 99 1014.3
20260510043021 20 179 0.0 0.0 0.00 0.00 0.00 99 1014.2
20260510042521 20 178 0.0 0.0 0.00 0.00 0.00 99 1014.2
20260510042021 20 179 0.0 0.0 0.00 0.00 0.00 99 1014.3
20260510041521 20 178 0.0 0.0 0.00 0.00 0.00 99 1014.3
20260510041021 20 179 0.0 0.0 0.00 0.00 0.00 99 1014.3
20260510040521 20 178 0.0 0.0 0.00 0.00 0.00 99 1014.2
20260510040021 20 179 0.0 0.0 0.00 0.00 0.00 99 1014.1
20260510035521 20 178 0.0 0.0 0.00 0.00 0.56 99 1014.2
20260510035021 20 179 0.0 0.0 0.00 0.00 0.56 99 1014.1
20260510034521 20 178 0.0 4.8 0.00 0.00 0.56 99 1014.3
20260510034021 20 162 3.2 6.4 0.00 0.00 0.56 99 1014.3
20260510033521 20 160 0.0 6.4 0.00 0.00 0.56 98 1014.4
20260510033021 20 179 1.6 8.0 0.00 0.00 0.56 98 1014.4
20260510032521 20 209 4.8 4.8 0.00 0.00 0.56 98 1014.3
20260510032021 20 309 0.0 0.0 0.00 0.00 0.56 98 1014.2
20260510031521 20 307 0.0 0.0 0.00 0.00 0.56 98 1014.2
20260510031021 20 309 0.0 3.2 0.00 0.00 0.56 98 1014.0
20260510030521 20 295 1.6 8.0 0.00 0.00 0.56 98 1014.0
20260510030021 21 317 3.2 8.0 0.00 0.00 0.56 98 1013.9
20260510025521 20 338 3.2 4.8 0.00 0.00 0.56 98 1013.9
20260510025021 20 240 0.0 0.0 0.00 0.00 0.56 98 1014.0
20260510024521 21 239 0.0 0.0 0.00 0.00 0.56 98 1013.9
20260510024021 21 240 0.0 0.0 0.00 0.00 0.56 98 1013.9
20260510023521 21 239 0.0 3.2 0.00 0.00 0.56 98 1013.8
20260510023021 21 310 0.0 0.0 0.00 0.00 0.56 98 1013.6
20260510022521 21 309 0.0 0.0 0.00 0.00 0.56 98 1013.4
20260510022021 21 310 0.0 3.2 0.00 0.00 0.56 98 1013.3
20260510021521 21 281 0.0 3.2 0.00 0.00 0.56 98 1013.5
20260510021021 21 238 1.6 0.0 0.00 0.00 0.56 98 1013.3
20260510020521 21 237 0.0 3.2 0.00 0.00 0.56 98 1013.3
20260510020021 21 271 1.6 3.2 0.00 0.00 0.56 98 1013.4
20260510015521 21 265 3.2 8.0 0.00 0.00 0.56 98 1013.4
20260510015021 21 297 3.2 6.4 0.00 0.00 0.56 98 1013.5
20260510014521 21 251 3.2 11.3 0.00 0.00 0.56 98 1013.4
20260510014021 21 256 0.0 6.4 0.00 0.00 0.56 98 1013.5
20260510013521 21 281 0.0 4.8 0.00 0.00 0.56 98 1013.2
20260510013021 21 304 4.8 4.8 0.00 0.00 0.56 98 1013.1
20260510012521 21 261 0.0 4.8 0.00 0.00 0.56 98 1013.1
20260510012021 21 216 0.0 3.2 0.00 0.00 0.56 98 1012.8
20260510011520 21 174 0.0 4.8 0.00 0.00 0.56 98 1012.8
20260510011021 21 193 0.0 6.4 0.00 0.00 0.56 98 1012.9
20260510010520 21 241 0.0 6.4 0.00 0.00 0.56 98 1013.0
20260510010020 21 256 3.2 4.8 0.00 0.00 0.56 98 1012.8
20260510005520 21 234 1.6 6.4 0.00 0.00 0.56 98 1012.7
20260510005020 21 159 1.6 3.2 0.00 0.00 0.56 98 1012.6
20260510004520 21 185 1.6 4.8 0.00 0.00 0.56 98 1012.5
20260510004020 21 151 1.6 6.4 0.00 0.00 0.56 98 1012.6
20260510003520 21 172 4.8 4.8 0.00 0.00 0.56 98 1012.6
20260510003020 21 141 0.0 4.8 0.00 0.00 0.56 98 1012.7
20260510002520 21 227 0.0 8.0 0.00 0.00 0.56 98 1012.8
20260510002020 21 234 0.0 8.0 0.00 0.00 0.56 98 1012.9
20260510001520 21 225 3.2 6.4 0.00 0.00 0.56 98 1013.2
20260510001020 21 216 3.2 6.4 0.00 0.00 0.56 98 1013.1
20260510000520 21 279 1.6 8.0 0.00 0.00 0.56 98 1013.1
20260510000020 21 244 4.8 8.0 0.00 0.00 0.56 98 1013.2
20260509235520 21 268 1.6 6.4 0.00 0.00 0.56 98 1013.2
20260509235020 21 278 1.6 4.8 0.00 0.00 0.56 98 1013.1
20260509234520 21 204 0.0 3.2 0.00 0.00 0.56 98 1013.1
20260509234020 21 235 0.0 6.4 0.00 0.00 0.56 98 1013.0
20260509233520 21 259 1.6 4.8 0.00 0.00 0.56 98 1013.0
20260509233020 21 88 0.0 0.0 0.00 0.00 0.56 97 1012.9
20260509232520 21 88 0.0 0.0 0.00 0.00 0.56 97 1012.9
20260509232020 21 88 0.0 0.0 0.00 0.00 0.56 97 1012.9
20260509231520 21 88 0.0 0.0 0.00 0.00 0.56 97 1012.9
20260509231020 21 88 0.0 0.0 0.00 0.00 0.56 97 1013.0
20260509230520 21 88 0.0 0.0 0.00 0.00 0.56 97 1012.9
20260509230020 21 88 0.0 0.0 0.00 0.00 0.56 97 1012.8
20260509225520 21 88 0.0 0.0 0.00 0.00 0.56 97 1012.9
20260509225020 21 88 0.0 0.0 0.00 0.00 0.56 97 1012.8
20260509224520 21 88 0.0 0.0 0.00 0.00 0.56 97 1012.8
20260509224020 21 88 0.0 0.0 0.00 0.00 0.56 97 1012.8
20260509223520 21 88 0.0 0.0 0.00 0.00 0.56 97 1012.7
20260509223020 21 88 0.0 0.0 0.00 0.00 0.56 97 1012.8
20260509222520 21 88 0.0 0.0 0.00 0.00 0.56 97 1012.7
20260509222020 21 88 0.0 6.4 0.00 0.00 0.56 97 1012.6
20260509221520 21 45 0.0 6.4 0.00 0.00 0.56 97 1012.6
20260509221020 21 80 3.2 9.7 0.00 0.00 0.56 97 1012.5
20260509220520 21 11 0.0 6.4 0.00 0.00 0.56 97 1012.6
20260509220020 21 69 4.8 6.4 0.00 0.00 0.56 97 1012.4
20260509215520 21 42 3.2 11.3 0.00 0.00 0.56 97 1012.5
20260509215020 21 12 0.0 0.0 0.00 0.00 0.56 97 1012.6
20260509214520 21 12 0.0 4.8 0.00 0.00 0.56 97 1012.5
20260509214020 21 19 4.8 9.7 0.00 0.00 0.56 97 1012.6
20260509213520 21 337 0.0 8.0 0.00 0.00 0.56 97 1012.6
20260509213020 21 360 4.8 9.7 0.00 0.00 0.56 97 1012.6
20260509212520 21 338 8.0 11.3 0.00 0.00 0.56 97 1012.6
20260509212020 21 360 3.2 9.7 0.00 0.00 0.56 97 1012.8
20260509211520 21 360 4.8 14.5 0.00 0.00 0.56 97 1012.8
20260509211019 21 358 6.4 14.5 0.03 0.00 0.56 97 1012.7
20260509210519 21 347 11.3 12.9 0.03 0.00 0.56 97 1012.7
20260509210019 21 23 6.4 14.5 0.08 0.00 0.56 97 1012.9
20260509205519 21 331 9.7 14.5 0.13 0.00 0.56 96 1013.0
20260509205019 21 5 1.6 16.1 0.15 0.00 0.56 96 1012.9
20260509204519 21 321 14.5 16.1 0.18 0.00 0.56 96 1013.1
20260509204019 21 331 0.0 11.3 0.18 0.00 0.56 96 1013.0
20260509203519 21 336 6.4 12.9 0.20 0.00 0.56 96 1013.0
20260509203019 21 337 6.4 12.9 0.23 0.00 0.56 96 1013.1
20260509202519 21 320 9.7 17.7 0.23 0.00 0.56 96 1013.0
20260509202019 21 358 4.8 17.7 0.28 0.00 0.56 96 1013.0
20260509201519 21 312 9.7 17.7 0.30 0.00 0.53 95 1012.9
20260509201019 21 345 6.4 24.1 0.30 0.00 0.53 95 1012.9
20260509200519 21 319 16.1 24.1 0.30 0.00 0.53 94 1012.8
20260509200019 22 350 12.9 24.1 0.25 0.00 0.48 94 1012.8
20260509195519 22 327 14.5 24.1 0.20 0.00 0.43 92 1012.7
20260509195019 22 347 12.9 20.9 0.18 0.00 0.41 90 1012.9
20260509194519 22 314 8.0 20.9 0.15 0.00 0.38 89 1013.1
20260509194019 23 299 16.1 24.1 0.15 0.00 0.38 87 1012.9
20260509193519 23 344 11.3 24.1 0.13 0.00 0.36 84 1012.6
20260509193019 24 330 11.3 6.4 0.10 0.00 0.33 83 1012.7
20260509192519 25 245 0.0 6.4 0.10 0.00 0.33 81 1012.5
20260509192019 25 255 6.4 9.7 0.05 0.00 0.28 80 1012.6
20260509191519 25 255 4.8 9.7 0.00 0.00 0.23 78 1012.6
20260509191019 25 270 3.2 12.9 0.00 0.00 0.23 77 1012.4
20260509190519 25 214 8.0 12.9 0.00 0.00 0.23 76 1012.4
20260509190019 25 241 9.7 12.9 0.00 0.00 0.23 75 1012.3
20260509185519 25 232 4.8 12.9 0.00 0.00 0.23 75 1012.3
20260509185019 25 226 6.4 12.9 0.00 0.00 0.23 74 1012.2
20260509184519 25 264 8.0 12.9 0.00 0.00 0.23 75 1012.4
20260509184019 25 275 6.4 14.5 0.00 0.00 0.23 75 1012.4
20260509183519 25 282 8.0 14.5 0.00 0.00 0.23 75 1012.6
20260509183019 25 188 1.6 14.5 0.00 0.00 0.23 75 1012.7
20260509182519 25 242 6.4 14.5 0.00 0.00 0.23 74 1012.6
20260509182019 25 239 11.3 19.3 0.00 0.00 0.23 73 1012.5
20260509181519 26 259 9.7 19.3 0.00 0.00 0.23 72 1012.6
20260509181019 26 264 9.7 16.1 0.00 0.00 0.23 71 1012.6
20260509180519 26 224 6.4 16.1 0.00 0.00 0.23 71 1012.6
20260509180019 26 235 4.8 12.9 0.00 0.00 0.23 71 1012.6
20260509175519 26 227 1.6 11.3 0.00 0.00 0.23 72 1012.7
20260509175019 26 193 3.2 19.3 0.00 0.00 0.23 71 1012.8
20260509174519 26 187 11.3 16.1 0.00 0.00 0.23 70 1012.8
20260509174019 26 218 9.7 20.9 0.00 0.00 0.23 71 1012.7
20260509173519 26 168 3.2 12.9 0.00 0.00 0.23 72 1012.8
20260509173019 26 194 11.3 12.9 0.00 0.00 0.23 73 1012.7
20260509172519 26 204 3.2 14.5 0.00 0.00 0.23 72 1012.8
20260509172019 25 248 6.4 14.5 0.00 0.00 0.23 74 1012.9
20260509171519 25 149 6.4 14.5 0.00 0.00 0.23 74 1012.9
20260509171019 25 207 6.4 17.7 0.00 0.00 0.23 74 1012.9
20260509170518 25 244 8.0 14.5 0.00 0.00 0.23 74 1013.0
20260509170018 25 217 3.2 11.3 0.00 0.00 0.23 73 1013.1
20260509165518 25 224 9.7 14.5 0.00 0.00 0.23 75 1013.1
20260509165018 25 268 6.4 11.3 0.00 0.00 0.23 75 1013.2
20260509164518 25 153 6.4 12.9 0.00 0.00 0.23 74 1013.2
20260509164018 25 193 9.7 14.5 0.00 0.00 0.23 73 1013.2
20260509163518 25 203 9.7 14.5 0.00 0.00 0.23 75 1013.3
20260509163018 25 211 3.2 9.7 0.00 0.00 0.23 74 1013.2
20260509162518 25 124 6.4 11.3 0.00 0.00 0.23 74 1013.3
20260509162018 25 220 6.4 11.3 0.00 0.00 0.23 75 1013.4
20260509161518 25 139 3.2 8.0 0.00 0.00 0.23 75 1013.4
20260509161018 24 155 1.6 8.0 0.00 0.00 0.23 76 1013.3
20260509160518 24 55 6.4 9.7 0.00 0.00 0.23 76 1013.2
20260509160018 23 230 3.2 9.7 0.00 0.00 0.23 77 1013.1
20260509155518 23 100 4.8 9.7 0.00 0.00 0.23 77 1012.9
20260509155018 23 128 6.4 9.7 0.00 0.00 0.23 78 1012.7
20260509154518 23 134 1.6 4.8 0.00 0.00 0.23 79 1012.8
20260509154018 23 117 0.0 4.8 0.00 0.00 0.23 79 1013.0
20260509153518 23 45 4.8 4.8 0.00 0.00 0.23 79 1013.1
20260509153018 23 310 0.0 4.8 0.00 0.00 0.23 80 1013.5
20260509152518 23 316 0.0 8.0 0.00 0.00 0.23 81 1013.7
20260509152018 22 354 1.6 8.0 0.00 0.00 0.23 81 1013.7
20260509151518 22 286 0.0 8.0 0.00 0.00 0.23 82 1013.6
20260509151018 22 337 0.0 8.0 0.00 0.00 0.23 82 1013.8
20260509150518 22 329 6.4 12.9 0.00 0.00 0.23 83 1013.9
20260509150018 22 360 3.2 12.9 0.00 0.00 0.23 83 1014.2
20260509145518 22 315 6.4 12.9 0.00 0.00 0.23 83 1014.3
20260509145018 22 324 9.7 12.9 0.00 0.00 0.23 84 1014.2
20260509144518 22 331 6.4 12.9 0.00 0.00 0.23 84 1014.1
20260509144018 22 320 4.8 12.9 0.00 0.00 0.23 85 1014.1
20260509143518 22 323 9.7 8.0 0.00 0.00 0.23 86 1014.0
20260509143018 22 19 1.6 8.0 0.00 0.00 0.23 87 1013.8
20260509142518 22 355 4.8 4.8 0.00 0.00 0.23 87 1013.8
20260509142018 22 354 0.0 8.0 0.00 0.00 0.23 89 1013.7
20260509141518 22 358 3.2 6.4 0.00 0.00 0.23 90 1013.7
20260509141018 21 360 3.2 8.0 0.00 0.00 0.23 93 1013.7
20260509140518 21 7 1.6 9.7 0.00 0.00 0.23 93 1013.7
20260509140018 21 323 6.4 8.0 0.00 0.00 0.23 94 1013.8
20260509135518 21 319 6.4 8.0 0.00 0.00 0.23 96 1013.7
20260509135018 21 326 1.6 11.3 0.00 0.00 0.23 96 1013.6
20260509134518 21 351 0.0 9.7 0.00 0.00 0.23 97 1013.7
20260509134018 21 309 6.4 6.4 0.00 0.00 0.23 97 1013.7
20260509133518 21 254 3.2 6.4 0.00 0.00 0.23 97 1013.5
20260509133018 21 317 4.8 6.4 0.00 0.00 0.23 97 1013.4
20260509132518 21 319 4.8 0.0 0.00 0.00 0.23 97 1013.3
20260509132017 21 304 0.0 0.0 0.00 0.00 0.23 97 1013.1
20260509131518 21 303 0.0 0.0 0.00 0.00 0.23 98 1013.1
20260509131018 21 304 0.0 0.0 0.00 0.00 0.23 98 1013.2
20260509130517 20 303 0.0 3.2 0.00 0.00 0.23 98 1013.0
20260509130017 20 304 0.0 9.7 0.00 0.00 0.23 98 1013.1
20260509125517 20 306 1.6 11.3 0.00 0.00 0.23 98 1013.3
20260509125017 20 306 8.0 11.3 0.00 0.00 0.23 98 1013.2
20260509124517 20 324 6.4 0.0 0.00 0.00 0.23 98 1013.1
20260509124017 20 314 0.0 4.8 0.00 0.00 0.23 98 1013.0
20260509123517 20 313 0.0 0.0 0.00 0.00 0.23 98 1012.9
20260509123017 20 289 0.0 0.0 0.00 0.00 0.23 98 1012.8
20260509122517 20 288 0.0 4.8 0.00 0.00 0.23 99 1012.9
20260509122017 20 289 0.0 6.4 0.00 0.00 0.23 99 1013.0
20260509121517 20 358 1.6 6.4 0.00 0.00 0.23 99 1013.1
20260509121017 20 338 4.8 6.4 0.00 0.00 0.23 99 1013.0
20260509120517 20 317 3.2 6.4 0.00 0.00 0.23 99 1013.0
20260509120017 20 331 6.4 6.4 0.00 0.00 0.23 99 1013.0
20260509115517 20 320 4.8 8.0 0.00 0.00 0.23 99 1012.9
20260509115017 20 352 1.6 6.4 0.00 0.00 0.23 99 1012.8
20260509114517 20 340 0.0 8.0 0.00 0.00 0.23 99 1012.7
20260509114017 19 302 1.6 6.4 0.00 0.00 0.23 99 1012.7
20260509113517 19 351 0.0 8.0 0.00 0.00 0.23 99 1012.6
20260509113017 19 327 4.8 8.0 0.00 0.00 0.23 99 1012.8
20260509112517 19 341 3.2 11.3 0.00 0.00 0.23 99 1012.7
20260509112017 19 306 4.8 8.0 0.00 0.00 0.23 99 1012.7
20260509111517 19 303 8.0 4.8 0.00 0.00 0.23 99 1012.7
20260509111017 19 320 0.0 8.0 0.00 0.00 0.23 99 1012.3
20260509110517 18 305 4.8 4.8 0.00 0.00 0.23 99 1012.3
20260509110017 19 302 3.2 4.8 0.00 0.00 0.23 99 1012.2
20260509105517 19 331 0.0 4.8 0.00 0.00 0.23 99 1012.1
20260509105017 19 352 3.2 6.4 0.00 0.00 0.23 99 1011.9
20260509104517 19 337 3.2 8.0 0.00 0.00 0.23 99 1011.8
20260509104017 19 328 1.6 11.3 0.00 0.00 0.23 99 1011.7
20260509103517 19 343 6.4 12.9 0.00 0.00 0.23 99 1011.7
20260509103017 19 344 9.7 8.0 0.00 0.00 0.23 99 1011.7
20260509102517 19 328 0.0 11.3 0.00 0.00 0.23 99 1011.7
20260509102017 19 299 1.6 12.9 0.00 0.00 0.23 99 1011.6
20260509101517 19 304 6.4 16.1 0.00 0.00 0.23 99 1011.8
20260509101017 19 343 4.8 11.3 0.00 0.00 0.23 99 1011.6
20260509100517 19 312 8.0 9.7 0.00 0.00 0.23 99 1011.3
20260509100017 19 227 3.2 12.9 0.00 0.00 0.23 99 1011.0
20260509095517 19 200 6.4 12.9 0.00 0.00 0.23 99 1011.0
20260509095017 19 210 0.0 11.3 0.00 0.00 0.23 99 1011.0
20260509094517 19 180 3.2 11.3 0.00 0.00 0.23 99 1011.0
20260509094017 19 228 9.7 17.7 0.00 0.00 0.23 99 1011.0
20260509093517 19 200 6.4 17.7 0.00 0.00 0.23 99 1010.8
20260509093017 19 192 8.0 19.3 0.00 0.00 0.23 99 1010.7
20260509092516 19 165 9.7 17.7 0.00 0.00 0.23 99 1010.5
20260509092016 19 152 8.0 16.1 0.00 0.00 0.23 99 1010.7
20260509091516 19 163 6.4 16.1 0.00 0.00 0.23 99 1011.0
20260509091016 19 207 6.4 22.5 0.00 0.00 0.23 99 1011.0
20260509090516 19 98 8.0 25.7 0.00 0.00 0.23 99 1010.7
20260509090016 19 177 9.7 20.9 0.00 0.00 0.23 99 1010.4
20260509085516 19 170 16.1 14.5 0.00 0.00 0.23 99 1010.6
20260509085016 19 168 11.3 8.0 0.00 0.00 0.23 99 1011.2
20260509084516 19 170 3.2 0.0 0.00 0.00 0.23 99 1011.7
20260509084016 19 289 0.0 6.4 0.00 0.00 0.23 99 1011.9
20260509083516 19 289 0.0 6.4 0.00 0.00 0.23 99 1012.1
20260509083016 19 300 4.8 4.8 0.00 0.00 0.23 99 1012.1
20260509082516 19 285 1.6 4.8 0.00 0.00 0.23 99 1012.3
20260509082016 19 278 0.0 9.7 0.00 0.00 0.23 99 1012.3
20260509081516 19 317 3.2 11.3 0.00 0.00 0.23 99 1012.2
20260509081016 19 307 3.2 6.4 0.00 0.00 0.23 99 1012.1
20260509080516 19 326 1.6 0.0 0.00 0.00 0.23 99 1012.0
20260509080016 19 216 0.0 6.4 0.00 0.00 0.23 99 1011.8
20260509075516 19 216 0.0 8.0 0.00 0.00 0.23 99 1011.8
20260509075016 19 247 3.2 11.3 0.00 0.00 0.23 99 1011.8
20260509074516 19 266 3.2 11.3 0.00 0.00 0.23 99 1011.8
20260509074016 19 210 11.3 14.5 0.00 0.00 0.23 98 1011.7
20260509073516 19 152 6.4 11.3 0.00 0.00 0.23 98 1011.8